Weather History for Washington, IA

Change the Weather History Date:

Wednesday, April 25, 2012

  Actual Average Record
Temperature  
Mean Temperature 65 °F -  
Max Temperature 80 °F 64 °F 80 °F (2012)
Min Temperature 50 °F 43 °F 33 °F (2013)
Growing Degree Days 15 (Base 50)    
Moisture  
Dew Point 52 °F    
Average Humidity 65    
Maximum Humidity 82    
Minimum Humidity 47    
Precipitation  
Precipitation 0.00 in - - ()
Sea Level Pressure  
Sea Level Pressure 29.58 in    
Wind  
Wind Speed 7 mph (SE)    
Max Wind Speed 17 mph    
Max Gust Speed 17 mph    
Visibility 10 miles    
Events      
Averages and records for this station are not official NWS values.
T = Trace of Precipitation, MM = Missing Value Source: NWS Daily Summary

Daily Weather History Graph

Daily Weather History Graph

Search for Another Location

Airport:

Trip Planner

Search our weather history database for the weather conditions in past years. The results will help you decide how hot, cold, wet, or windy it might be!

Date:

Astronomy

Apr. 25, 2012 Rise Set
Actual Time 6:11 AM CDT 7:58 PM CDT
Civil Twilight 5:42 AM CDT 8:27 PM CDT
Nautical Twilight 5:06 AM CDT 9:03 PM CDT
Astronomical Twilight 4:27 AM CDT 9:42 PM CDT
Moon 8:55 AM CDT (4/25) No Moon Set
Length of Visible Light 14h 45m
Length of Day
13h 46m
Waxing Crescent, 17% of the Moon is Illuminated
Apr 25
Waxing Crescent
Apr 29
First Quarter
May 5
Full
May 12
Last Quarter
May 20
New

Hourly Weather History & Observations

Time (CDT) Temp. Heat Index Dew Point Humidity Pressure Visibility Wind Dir Wind Speed Gust Speed Precip Events Conditions
12:15 AM 55.4 °F - 44.6 °F 67% 29.62 in 10.0 mi East 9.2 mph - N/A   Clear
12:35 AM 55.4 °F - 44.6 °F 67% 29.63 in 10.0 mi East 5.8 mph - N/A   Clear
12:55 AM 53.6 °F - 44.6 °F 72% 29.63 in 10.0 mi East 3.5 mph - N/A   Clear
1:15 AM 53.6 °F - 44.6 °F 72% 29.63 in 10.0 mi ENE 4.6 mph - N/A   Clear
1:35 AM 51.8 °F - 44.6 °F 76% 29.62 in 10.0 mi East 4.6 mph - N/A   Clear
1:55 AM 50.0 °F - 44.6 °F 82% 29.62 in 10.0 mi ENE 8.1 mph - N/A   Clear
2:15 AM 51.8 °F - 44.6 °F 76% 29.61 in 10.0 mi East 8.1 mph - N/A   Clear
2:55 AM 53.6 °F - 44.6 °F 72% 29.60 in 10.0 mi ESE 8.1 mph - N/A   Clear
3:15 AM 51.8 °F - 44.6 °F 76% 29.60 in 10.0 mi SSE 5.8 mph - N/A   Clear
3:35 AM 51.8 °F - 44.6 °F 76% 29.59 in 10.0 mi SE 6.9 mph - N/A   Clear
3:55 AM 51.8 °F - 44.6 °F 76% 29.59 in 10.0 mi East 9.2 mph - N/A   Clear
4:15 AM 51.8 °F - 44.6 °F 76% 29.58 in 10.0 mi East 10.4 mph - N/A   Clear
4:35 AM 51.8 °F - 44.6 °F 76% 29.58 in 10.0 mi ESE 9.2 mph - N/A   Clear
4:55 AM 51.8 °F - 44.6 °F 76% 29.58 in 10.0 mi ESE 6.9 mph - N/A   Clear
5:15 AM 50.0 °F - 44.6 °F 82% 29.58 in 10.0 mi SE 6.9 mph - N/A   Clear
5:35 AM 50.0 °F - 44.6 °F 82% 29.58 in 10.0 mi SE 5.8 mph - N/A   Clear
5:55 AM 50.0 °F - 44.6 °F 82% 29.58 in 10.0 mi ESE 4.6 mph - N/A   Clear
6:15 AM 50.0 °F - 44.6 °F 82% 29.57 in 10.0 mi SE 5.8 mph - N/A   Clear
6:35 AM 50.0 °F - 44.6 °F 82% 29.57 in 10.0 mi ESE 4.6 mph - N/A   Clear
6:55 AM 51.8 °F - 46.4 °F 82% 29.58 in 10.0 mi ESE 4.6 mph - N/A   Clear
7:15 AM 51.8 °F - 46.4 °F 82% 29.61 in 10.0 mi ENE 9.2 mph - N/A   Clear
7:35 AM 53.6 °F - 46.4 °F 77% 29.63 in 10.0 mi ENE 11.5 mph - N/A   Clear
7:55 AM 53.6 °F - 46.4 °F 77% 29.63 in 10.0 mi East 11.5 mph - N/A   Clear
8:15 AM 55.4 °F - 46.4 °F 72% 29.62 in 10.0 mi East 16.1 mph - N/A   Clear
8:35 AM 57.2 °F - 46.4 °F 67% 29.62 in 10.0 mi East 13.8 mph - N/A   Clear
8:55 AM 57.2 °F - 46.4 °F 67% 29.63 in 10.0 mi East 17.3 mph - N/A   Clear
9:15 AM 57.2 °F - 48.2 °F 72% 29.62 in 10.0 mi SE 16.1 mph - N/A   Clear
9:35 AM 60.8 °F - 48.2 °F 63% 29.61 in 10.0 mi ESE 13.8 mph - N/A   Clear
9:55 AM 62.6 °F - 48.2 °F 59% 29.61 in 10.0 mi SE 12.7 mph - N/A   Clear
10:15 AM 64.4 °F - 50.0 °F 59% 29.60 in 10.0 mi ESE 11.5 mph - N/A   Clear
10:35 AM 68.0 °F - 51.8 °F 56% 29.57 in 10.0 mi ESE 15.0 mph - N/A   Clear
10:55 AM 69.8 °F - 51.8 °F 53% 29.58 in 10.0 mi SE 13.8 mph - N/A   Clear
11:15 AM 71.6 °F - 51.8 °F 50% 29.57 in 10.0 mi SE 10.4 mph - N/A   Clear
11:35 AM 73.4 °F - 53.6 °F 50% 29.56 in 10.0 mi SSE 11.5 mph 17.3 mph N/A   Clear
11:55 AM 73.4 °F - 53.6 °F 50% 29.56 in 10.0 mi South 10.4 mph - N/A   Clear
12:15 PM 75.2 °F - 55.4 °F 50% 29.55 in 10.0 mi SSE 12.7 mph 16.1 mph N/A   Clear
12:35 PM 75.2 °F - 55.4 °F 50% 29.55 in 10.0 mi South 12.7 mph - N/A   Clear
12:55 PM 75.2 °F - 55.4 °F 50% 29.55 in 10.0 mi South 8.1 mph - N/A   Clear
1:35 PM 73.4 °F - 55.4 °F 53% 29.57 in 10.0 mi SW 9.2 mph - N/A   Clear
2:15 PM 73.4 °F - 55.4 °F 53% 29.56 in 10.0 mi South 8.1 mph - N/A   Clear
2:35 PM 73.4 °F - 57.2 °F 57% 29.56 in 10.0 mi SSW 5.8 mph - N/A   Clear
2:55 PM 75.2 °F - 57.2 °F 53% 29.54 in 10.0 mi South 8.1 mph - N/A   Clear
3:15 PM 77.0 °F - 57.2 °F 50% 29.53 in 10.0 mi SSE 8.1 mph - N/A   Clear
3:35 PM 75.2 °F - 57.2 °F 53% 29.52 in 10.0 mi South 5.8 mph - N/A   Clear
3:55 PM 77.0 °F - 57.2 °F 50% 29.52 in 10.0 mi South 5.8 mph - N/A   Clear
4:15 PM 78.8 °F - 57.2 °F 47% 29.52 in 10.0 mi SSW 5.8 mph - N/A   Clear
4:35 PM 78.8 °F - 57.2 °F 47% 29.52 in 10.0 mi SSW 6.9 mph - N/A   Clear
4:55 PM 78.8 °F - 57.2 °F 47% 29.53 in 10.0 mi WSW 5.8 mph - N/A   Clear
5:15 PM 78.8 °F - 57.2 °F 47% 29.53 in 10.0 mi Calm Calm - N/A   Clear
5:35 PM 78.8 °F - 57.2 °F 47% 29.52 in 10.0 mi West 3.5 mph - N/A   Clear
5:55 PM 78.8 °F - 57.2 °F 47% 29.53 in 10.0 mi WSW 4.6 mph - N/A   Clear
6:15 PM 80.6 °F 81.1 °F 59.0 °F 48% 29.53 in 10.0 mi West 4.6 mph - N/A   Clear
6:35 PM 78.8 °F - 59.0 °F 51% 29.54 in 10.0 mi West 5.8 mph - N/A   Clear
6:55 PM 78.8 °F - 59.0 °F 51% 29.53 in 10.0 mi NW 4.6 mph - N/A   Clear
7:15 PM 75.2 °F - 57.2 °F 53% 29.55 in 10.0 mi WNW 9.2 mph - N/A   Clear
7:35 PM 75.2 °F - 57.2 °F 53% 29.55 in 10.0 mi WNW 4.6 mph - N/A   Clear
7:55 PM 73.4 °F - 57.2 °F 57% 29.56 in 10.0 mi WNW 3.5 mph - N/A   Clear
8:15 PM 71.6 °F - 57.2 °F 60% 29.56 in 10.0 mi NW 3.5 mph - N/A   Clear
8:35 PM 69.8 °F - 57.2 °F 64% 29.58 in 10.0 mi Calm Calm - N/A   Clear
8:55 PM 69.8 °F - 57.2 °F 64% 29.58 in 10.0 mi Calm Calm - N/A   Clear
9:15 PM 69.8 °F - 57.2 °F 64% 29.59 in 10.0 mi Calm Calm - N/A   Clear
9:35 PM 66.2 °F - 57.2 °F 73% 29.60 in 10.0 mi Calm Calm - N/A   Clear
9:55 PM 64.4 °F - 57.2 °F 77% 29.60 in 10.0 mi Calm Calm - N/A   Clear
10:15 PM 64.4 °F - 57.2 °F 77% 29.61 in 10.0 mi Calm Calm - N/A   Clear
10:35 PM 64.4 °F - 57.2 °F 77% 29.61 in 10.0 mi Calm Calm - N/A   Clear
10:55 PM 64.4 °F - 57.2 °F 77% 29.61 in 10.0 mi Calm Calm - N/A   Clear
11:15 PM 64.4 °F - 57.2 °F 77% 29.63 in 10.0 mi Calm Calm - N/A   Clear
11:35 PM 62.6 °F - 55.4 °F 77% 29.64 in 10.0 mi NNE 9.2 mph - N/A   Clear
11:55 PM 60.8 °F - 53.6 °F 77% 29.65 in 10.0 mi NNE 6.9 mph - N/A   Clear